User: anonymous   Login
Location: Newark
(44.0692°N, 7.2567°E)
Time: 02:14:26
(UTC+00:00)
Language:

PicSat - Orbit

View from above orbital plane
View from above orbital plane
View from above satellite
View from above satellite

Ground track
Ground track

The orbit data is extracted from the following two-line orbital elements,

1 43131U 18004W   19294.14562040  .00001606  00000-0  68333-4 0  9992
2 43131  97.4775   2.0060 0009726 167.0360 193.1129 15.24443782 98472
Epoch (UTC): 21 October 2019 03:29:41
Eccentricity: 0.0009726
inclination: 97.4775°
perigee height: 486 km
apogee height: 499 km
right ascension of ascending node: 2.0060°
argument of perigee: 167.0360°
revolutions per day: 15.24443782
mean anomaly at epoch: 193.1129°
orbit number at epoch: 9847

The dashed part of the orbit path shows where the satellite is in the earth's shadow,  

DLR